Regional Weather Roundup
Issued by NWS Huntsville, AL

Home | Current Version | Previous Version | Text Only | Print | Product List | Glossary On
Versions: 1 2 3 4 5 6 7 8 9 10 11 12 13 14 15 16 17 18 19 20 21 22 23 24 25 26 27 28 29 30 31 32 33 34 35 36 37 38 39 40 41 42 43 44 45 46 47 48 49 50
000
ASUS44 KHUN 291110
RWRHUN

WEATHER ROUNDUP FOR THE TENNESSEE VALLEY
NATIONAL WEATHER SERVICE HUNTSVILLE AL
600 AM CDT WED JUL 29 2015

ALZ001>004-291200-
NORTHWEST ALABAMA

CITY           SKY/WX    TMP DP  RH WIND       PRES   REMARKS
SHOALS AIRPORT MOCLDY    76  72  87 NW5       30.03R
SHOALS TVA RES   N/A     77 N/A N/A MISG        N/A
$$

ALZ005>007-016-291200-
NORTH CENTRAL ALABAMA

CITY           SKY/WX    TMP DP  RH WIND       PRES   REMARKS
DECATUR AP     CLOUDY    76  74  93 NW5       30.02R
HUNTSVILLE AP  CLOUDY    78  73  84 NW5       30.01R
HUN NWS/UAH      N/A     77  71  82 N2          N/A
MERIDIANVILLE  CLOUDY    73  70  88 CALM      30.02R
REDSTONE ARSN  CLOUDY    76  73  92 N5        30.00R
VINEMONT AP    FAIR      74  73  96 CALM      30.05R
$$

ALZ008>010-291200-
NORTHEAST ALABAMA

CITY           SKY/WX    TMP DP  RH WIND       PRES   REMARKS
ALBERTVILLE    MOCLDY    72  72 100 CALM      30.01R FOG
FORT PAYNE     PTCLDY    70  68  94 CALM      30.01R FOG
SCOTTSBORO AP  MOCLDY    73  73 100 NE3       30.01R
SCOTTSBORO HCN   N/A     73 N/A N/A MISG        N/A
VALLEY HEAD      N/A     72 N/A N/A MISG        N/A
$$

TNZ076-096-097-291200-
SOUTHEASTERN MIDDLE TENNESSEE

CITY           SKY/WX    TMP DP  RH WIND       PRES   REMARKS
TULLAHOMA      CLOUDY    73  72  94 CALM      30.05R VSB 1
WINCHESTER     CLOUDY    72  72 100 CALM      30.04R
$$

...SURROUNDING SITES...

CITY           SKY/WX    TMP DP  RH WIND       PRES   REMARKS
ATLANTA        PTCLDY    76  71  85 NW3       29.99R
ANNISTON       CLEAR     73  71  93 CALM      30.00R
BIRMINGHAM     MOCLDY    78  74  87 CALM      30.02S
CHATTANOOGA    PTCLDY    76  73  91 N3        30.01R
DALTON         CLEAR     72  72 100 CALM      30.00R
GADSDEN        PTCLDY    72  66  83 W3        30.00R
GOLDEN TRNGL   CLEAR     77  72  83 NW5       29.99R
HALEYVILLE     FAIR      74  74 100 CALM      30.06R FOG
JACKSON TN     MOCLDY    77  73  87 CALM      30.02R
MEMPHIS        MOCLDY    83  76  79 CALM      30.02R HX  91
NASHVILLE      MOCLDY    73  73 100 CALM      30.03R FOG
ROME           CLEAR     73  72  96 CALM      30.00R
SAVANNAH       MOCLDY    72  32  23 CALM      30.03R
TUPELO         MOCLDY    79  76  90 CALM      30.01R
TUSCALOOSA     CLEAR     77  75  93 CALM      29.99R FOG
$$

...GULF COAST WEATHER...

CITY           SKY/WX    TMP DP  RH WIND       PRES   REMARKS
GULFPORT       PTCLDY    79  75  87 NW5       29.98R
PASCAGOULA     CLOUDY    79  76  90 W3        29.98R
MOBILE         PTCLDY    78  74  87 W5        30.00R
GULF SHORES    SUNNY     81  75  84 NW5       29.97R
PENSACOLA      MOCLDY    80  74  81 NW3       29.96R
DESTIN         CLEAR     82  76  81 NW3       29.95R
PANAMA CITY    CLEAR     80  77  92 NW5       29.96R
APPALACHICOLA  PTCLDY    83  78  85 NW5       29.95R HX  93
$$



USA.gov is the U.S. government's official web portal to all federal, state and local government web resources and services.